Other Public Products
Issued by NWS Charleston, SC

Current Version | Previous Version | Graphics & Text | Print | Product List | Glossary On
Versions: 1 2 3 4 5 6 7 8 9 10 11 12 13 14 15 16 17 18 19 20 21 22 23 24 25 26 27 28 29 30 31 32 33 34 35 36 37 38 39 40 41 42 43 44 45 46 47 48 49 50
984 FPUS82 KCHS 271912 OPUCHS TEST...KCHS/KSAV Gateway Observations...TEST National Weather Service Charleston SC 300 PM EDT SUN MAY 27 2018 NOTE: "fair" indicates few or no clouds below 12,000 feet with no significant weather and/or obstructions to visibility. SCZ050-WAZ558-NCZ071-TXZ119-213-PAZ071-DCZ001-FLZ074-172-MI076- NYZ176-178-MAZ016-IL014-TNZ027-NJZ106-GAZ044-MD014-272000- ...Gateway Observations for Charleston International... CITY SKY/WX TMP DP RH WIND PRES REMARKS Chas Airport LGT RAIN 78 71 79 SE21 29.98S Seattle PTSUNNY 65 48 54 W8 30.24F Charlotte PTSUNNY 84 70 63 S12 29.99F Dallas DFW PTSUNNY 93 68 43 SE7 29.81F HX 97 Dallas Love PTSUNNY 92 71 50 S9 29.82F HX 98 Philladelphia CLOUDY 67 63 87 NE13 29.98S Wash National PTSUNNY 82 70 66 S8 29.90F Baltimore PTSUNNY 83 73 72 SE12 29.88F Miami PTSUNNY 81 75 82 S20G35 29.81F Detroit FAIR 89 63 41 W9 29.90R HX 90 Newark CLOUDY 63 58 83 NE13 30.03S Laguardia CLOUDY 61 56 83 NE18G26 30.04S J F K CLOUDY 60 59 96 NE21G30 30.03F Boston Logan CLOUDY 53 45 74 NE18 30.21F Ft. Lauderdale CLOUDY 82 76 81 S22G31 29.81F Chicago O`Hare FAIR 94 55 26 W6 29.87S HX 92 Chicago Midway FAIR 94 62 34 CALM 29.87S HX 94 Houston Bush PTSUNNY 91 74 57 VRB3 29.82F HX 100 Houston Hobby PTSUNNY 91 74 57 VRB3 29.81F HX 100 Nashville PTSUNNY 89 68 49 VRB7 29.92F HX 93 Atlanta CLOUDY 82 68 62 SE10 29.94F $$ GAZ044-118-TXZ119-213-NCZ071-DCZ001-MDZ014-506-PAZ021-071-NJZ106- NYZ176-178-MAZ106-OHZ011-021-055-MIZ076-KYZ091-ILZ014-INZ047- MNZ060-ONZ431-272000- ...Gateway Observations for Savannah International... CITY SKY/WX TMP DP RH WIND PRES REMARKS Savannah Arpt LGT RAIN 78 71 79 E16 29.94F Atlanta CLOUDY 82 68 62 SE10 29.94F Charlotte PTSUNNY 84 70 63 S12 29.99F Dallas DFW PTSUNNY 93 68 43 SE7 29.81F HX 97 Houston Bush PTSUNNY 91 74 57 VRB3 29.82F HX 100 Wash National PTSUNNY 82 70 66 S8 29.90F Wash Dulles LGT RAIN 82 71 69 SW10 29.91F Baltimore PTSUNNY 83 73 72 SE12 29.88F Philadelphia CLOUDY 67 63 87 NE13 29.98S Newark CLOUDY 63 58 83 NE13 30.03S Laguardia CLOUDY 61 56 83 NE18G26 30.04S J F K CLOUDY 60 59 96 NE21G30 30.03F Boston CLOUDY 53 45 74 NE18 30.21F Pittsburg FAIR 80 67 64 W8 29.94F Akron PTSUNNY 81 66 60 VRB6 29.94F Cleveland PTSUNNY 86 68 54 VRB5 29.93S Cincinnati FAIR 85 68 56 CALM 29.92F Columbus FAIR 85 66 52 MISG 29.91F Detroit FAIR 89 63 41 W9 29.90R HX 90 Chicago O`Hare FAIR 94 55 26 W6 29.87S HX 92 Minneapolis CLOUDY 87 60 40 N12 29.88R Indianapolis PTSUNNY 89 62 40 SW5 29.90S Toronto Canada MOSUNNY 79 66 65 S8 29.90S $$

USA.gov is the U.S. government's official web portal to all federal, state and local government web resources and services.